www.pogodaiklimat.ru

Погода и климат >> Архив погоды >> Россия >> Белгородская область >> Валуйки


АРХИВ ПОГОДЫ в Валуйках

Время (UTC), дата Ветер
(напр.,м/с)
 
Видим.   Явления Облачность Т
(С)
Тd
(С)
f
(%)
Тe
(С)
Тes
(С)
Комфортность P
(гПа)
Po
(гПа)
Тmin
(С)
Tmax
(С)
R
(мм)
R24
(мм)
S
(см)
18 17.06 С 1 20 км 3/0
[Ac trans]
+23.2 +15.0 60 +27 +27 душно 1015.3 1002.3 +28.2
21 17.06 С 1 10 км ясно +17.3 +13.4 78 +18 +18 1016.1 1002.8
00 18.06 штиль 0 10 км ясно +14.7 +13.0 90 +14 +14 1016.4 1003.1
03 18.06 штиль 0 20 км ясно +15.3 +12.7 84 +15 +17 1016.5 1003.2 +13.2
06 18.06 Ю 1 20 км 3/0
[Ci fib]
+24.2 +17.1 65 +28 +39 душно 1014.8 1001.9 +13.2
09 18.06 С 1 20 км 3/1 1000 м
[Cu hum Ci fib]
+27.8 +15.8 48 +31 +49 душно 1014.4 1001.6
12 18.06 З 3 20 км 3/1 1000 м
[Cu hum Ci fib]
+29.8 +14.3 39 +32 +41 душно 1013.5 1000.8
15 18.06 СЗ 2 20 км 4/0
[Ac trans Ci fib]
+28.8 +15.5 44 +32 +34 душно 1012.6 999.9
18 18.06 СЗ 1 20 км 4/0
[Ci fib]
+25.1 +19.4 71 +30 +30 душно 1012.3 999.5 +30.2
21 18.06 С 1 10 км ясно +20.0 +17.4 85 +24 +24 комфорт 1013.0 1000.0
00 19.06 СЗ 1 10 км 3/0
[Ac trans]
+17.8 +16.8 94 +19 +19 1013.6 1000.4
03 19.06 СЗ 1 20 км 8/0
[Ac trans Ci fib]
+18.2 +16.7 91 +20 +21 1013.5 1000.4 +17.2
06 19.06 СВ 2 20 км ясно +25.5 +16.0 56 +29 +39 душно 1012.9 1000.1 +17.2
09 19.06 С 2 20 км 3/3 1000 м
[Cu hum]
+27.7 +16.0 49 +31 +43 душно 1013.1 1000.4
12 19.06 С 2 20 км 4/4 1000 м
[Cu hum]
+28.4 +14.3 42 +31 +38 душно 1013.0 1000.3
15 19.06 СВ 3 20 км 3/3 1000 м
[Cu hum]
+29.1 +12.6 36 +30 +32 жарко 1012.7 1000.0
18 19.06 СВ 2 20 км ясно +25.1 +14.6 52 +28 +28 жарко 1013.4 1000.5 +30.5
21 19.06 З 1 10 км ясно +19.4 +15.3 77 +22 +22 комфорт 1014.4 1001.2
00 20.06 штиль 0 10 км ясно +16.0 +14.6 91 +16 +16 1015.2 1001.9
03 20.06 штиль 0 20 км ясно +16.0 +14.2 89 +16 +18 1016.0 1002.7 +14.3
06 20.06 В 1 20 км 1/0
[Ci fib]
+25.4 +12.6 45 +27 +39 жарко 1016.1 1003.2 +14.3
09 20.06 В 3 20 км 4/3 1000 м
[Cu hum Ci fib]
+29.6 +9.5 29 +29 +39 жарко 1015.5 1002.8
12 20.06 В 3 20 км 4/3 1000 м
[Cu hum Ci fib]
+30.5 +8.0 25 +30 +37 жарко 1015.5 1002.8
15 20.06 В 3 20 км 3/1 1000 м
[Cu hum Ci fib]
+30.3 +9.0 27 +30 +32 жарко 1015.3 1002.6
18 20.06 СВ 2 20 км 1/0
[Ci fib]
+24.0 +13.1 51 +26 +26 жарко 1015.0 1002.0 +31.0
21 20.06 штиль 0 10 км ясно +18.7 +14.4 76 +19 +19 1015.5 1002.3
00 21.06 штиль 0 10 км 3/0
[Ci fib]
+15.5 +13.5 88 +15 +15 1016.8 1003.5
03 21.06 штиль 0 20 км 3/0
[Ac trans Ci fib]
+16.3 +13.2 82 +16 +18 1017.3 1004.0 +14.4
06 21.06 штиль 0 20 км 4/0
[Ci sp]
+25.8 +16.0 55 +29 +41 душно 1017.3 1004.4 +14.4
09 21.06 В 3 20 км 4/0
[Ac trans Ci fib]
+30.7 +10.7 29 +31 +42 жарко 1016.1 1003.5
12 21.06 В 2 20 км 4/0
[Ac trans Ci fib]
+32.5 +11.3 27 +32 +43 жарко 1015.9 1003.3
15 21.06 В 3 20 км 4/3 600 м
[Cb cap Ac trans]
+31.9 +11.1 28 +32 +34 жарко 1015.2 1002.6
18 21.06 СВ 1 20 км 3/0
[Ac trans]
+25.7 +13.2 46 +28 +28 жарко 1016.4 1003.5 +32.7
21 21.06 штиль 0 10 км ясно +20.5 +14.1 67 +23 +23 комфорт 1017.5 1004.4
00 22.06 З 1 10 км 8/0
[Ac trans]
+18.1 +14.1 77 +19 +19 1018.5 1005.2
03 22.06 З 1 20 км 8/0
[Ac trans]
+18.3 +13.7 75 +20 +21 1018.5 1005.3 +17.3
06 22.06 В 1 20 км 3/0
[Ac trans]
+27.5 +15.2 47 +30 +40 жарко 1017.2 1004.4 +17.3
09 22.06 ЮВ 2 20 км 3/3 1000 м
[Cu hum]
+33.0 +11.7 27 +33 +45 жарко 1017.1 1004.5
12 22.06 ЮВ 2 20 км 3/3 1000 м
[Cu hum Ci fib]
+34.2 +10.3 23 +33 +43 жарко 1016.5 1003.9
15 22.06 ЮВ 2 20 км 3/3 1000 м
[Cu hum Ci fib]
+33.8 +13.6 30 +35 +37 очень
жарко
1016.1 1003.5
18 22.06 В 1 20 км 8/0
[Ac trans Ci fib]
+27.2 +16.9 53 +31 +31 душно 1016.3 1003.5 +35.0
21 22.06 З 1 10 км ясно +21.8 +14.7 64 +25 +25 комфорт 1017.2 1004.1
00 23.06 Ю 1 10 км 3/0
[Ci fib]
+18.0 +15.2 84 +19 +19 1017.7 1004.4
03 23.06 штиль 0 20 км 4/0
[Ci fib]
+18.0 +15.1 83 +18 +20 1018.3 1005.0 +16.3
06 23.06 В 1 20 км 4/0
[Ci fib]
+28.7 +13.4 39 +30 +41 жарко 1017.2 1004.5 +16.3
09 23.06 В 2 20 км 6/0
[Ci fib]
+34.1 +9.5 22 +33 +48 жарко 1016.6 1004.0
12 23.06 В 1 20 км 4/0
[Ac trans Ci fib]
+35.1 +9.7 21 +34 +47 очень
жарко
1015.6 1003.1
15 23.06 В 3 20 км 3/0
[Ci fib]
+34.1 +9.5 22 +33 +35 жарко 1014.6 1002.0
18 23.06 СВ 1 20 км 3/0
[Ci fib]
+27.4 +14.7 46 +30 +30 жарко 1015.1 1002.3 +35.5
21 23.06 штиль 0 10 км 3/0
[Ci fib]
+22.4 +15.6 65 +26 +26 жарко 1015.3 1002.3
00 24.06 СЗ 1 10 км 8/0
[Ac trans Ci fib]
+21.2 +15.1 68 +24 +24 комфорт 1015.4 1002.3
03 24.06 З 1 20 км 9/0
[Ac trans Ci fib]
+21.0 +15.1 69 +25 +26 комфорт 1015.4 1002.3 +20.5
06 24.06 С 1 20 км 9/0
[Ac trans]
+25.1 +14.6 52 +28 +33 жарко 1016.2 1003.3 +20.5
09 24.06 СВ 2 20 км 10/0
[Ac As]
+26.9 +16.4 53 +30 +36 душно 1016.1 1003.3
12 24.06 С 2 20 км 8/3 600 м
[Cb cap Ac trans]
+28.5 +17.1 50 +32 +38 душно 1016.6 1003.9
15 24.06 С 1 20 км 9/3 600 м
[Cb cap Ac trans]
+28.3 +17.4 52 +32 +34 душно 1016.2 1003.5

 

Местоположение метеостанции Валуйки (Белгородская область, Россия): широта 50.22 долгота 38.10 высота над уровнем моря 112 м.

В архиве по умолчанию представлена погода в Валуйках за последнюю неделю. Архивные данные за месяц целиком и за предыдущие месяцы, начиная с января 2011 года, Вы можете получить, выбрав интересующий диапазон дат из раскрывающегося списка и нажав кнопку "Ввод!".


*Определитесь, кто Вы:
робот инопланетянин человек

Внимание! Время в таблицах - всемирное. Для получения местного времени необходимо прибавить поправку, которая равна 3 ч.

Смотрите также архив погоды в соседних городах и на ближайших метеорологических станциях:

Погода в Новопскове (Луганская область, Украина) (25 км)
Погода в Троицком (Луганская область, Украина) (35 км)
Погода в Великом Бурлуке (Харьковская область, Украина) (54 км)
Погода в Новом Осколе (Белгородская область, Россия) (61 км)
Погода в Купянске (Харьковская область, Украина) (72 км)
Погода в Сватово (Луганская область, Украина) (89 км)
Погода в Белгороде (Белгородская область, Россия) (117 км)
Погода в Богородицком (Белгородская область, Россия) (118 км)
Погода в Старом Осколе (Белгородская область, Россия) (121 км)
Погода в Изюме (Харьковская область, Украина) (129 км)

Пояснения к столбцам:

Ветер - указаны скорость ветра в м/с - средняя за 10 мин, порывы в срок и между сроками (в фигурных скобках) и направление, откуда дует ветер: С - северный, СВ - северо-восточный, В - восточный, ЮВ - юго-восточный, Ю - южный, ЮЗ - юго-западный, З - западный, СЗ - северо-западный.
Видимость - горизонтальная дальность видимости в метрах или километрах. При видимости от 1 до 10 км при отсутствии осадков обычно наблюдается дымка, при ухудшении видимости до 1 км и менее - туман. В сухую погоду видимость может ухудшаться дымом, пылью или мглою.
Явления - указаны атмосферные явления, наблюдавшиеся в срок или в последний час перед сроком; фигурными скобками обозначены явления, наблюдавшиеся между сроками (за 1-3 часа до срока); квадратными скобками обозначены град или гололедные отложения с указанием их диаметра в мм.
Облачность - указаны через наклонную черту общая и нижняя облачность в баллах и высота нижней границы облаков в метрах; квадратными скобками обозначены формы облаков: Ci - перистые, Cs - перисто-слоистые, Cc - перисто-кучевые, Ac - высококучевые, As - высокослоистые, Sc - слоисто-кучевые, Ns - слоисто-дождевые, Cu - кучевые, Cb - кучево-дождевые. Подробнее классификацию облаков см. в Атласе облаков (PDF).
T - Температура воздуха - температура, измеренная на высоте 2 м над землей.
Td - Температура точки росы - температура, при понижении до которой содержащийся в воздухе водяной пар достигнет насыщения.
f - Относительная влажность воздуха - влажноcть воздуха, измеренная на высоте 2 м над землей.
Te - Эффективная температура - температура, которую ощущает одетый по сезону человек в тени. Характеристика душности погоды. При расчете учитывается влияние влажности воздуха и скорости ветра на теплоощущения человека.
Tes - Эффективная температура на солнце - температура, которую ощущает человек, с поправкой на солнечный нагрев. Характеристика знойности погоды. Зависит от высоты солнца над горизонтом, облачности и скорости ветра. Ночью, в пасмурную погоду, а также при ветре 12 м/с и более поправка равна нулю.
P - Атмосферное давление - приведенное к уровню моря атмосферное давление.
Po - Атмосферное давление - измеренное на уровне метеостанции атмосферное давление.
Tmin - Минимальная температура - минимум температуры воздуха на высоте 2 м над землей.
Tmax - Максимальная температура - максимум температуры воздуха на высоте 2 м над землей.
R - Количество осадков - Количество выпавших осадков за период времени, мм. При наведении курсора мыши на число - период времени, за который выпало указанное количество осадков.
R24 - Количество осадков - Количество выпавших осадков за 24 часа, мм.
S - Снежный покров - Высота снежного покрова, см. При наведении курсора мыши на число - состояние снежного покрова и степень покрытия местности в баллах.